Time,TemperatureF,DewpointF,PressureIn,WindDirection,WindDirectionDegrees,WindSpeedMPH,WindSpeedGustMPH,Humidity,HourlyPrecipIn,Conditions,Clouds,dailyrainin,SoftwareType,DateUTC
2013-02-15 00:02:00,29.0,21.0,29.90,SSE,158,0.0,-999.0,72,-99.99,,,-99.99,,2013-02-15 05:02:00,
2013-02-15 00:12:00,29.0,21.0,29.90,SSE,158,0.0,-999.0,72,-99.99,,,-99.99,,2013-02-15 05:12:00,
2013-02-15 00:22:00,28.0,20.0,29.89,SE,141,0.0,-999.0,72,-99.99,,,-99.99,,2013-02-15 05:22:00,
2013-02-15 00:32:00,28.0,20.0,29.89,SE,141,0.0,-999.0,72,-99.99,,,-99.99,,2013-02-15 05:32:00,
2013-02-15 00:42:00,28.0,20.0,29.89,SE,141,0.0,-999.0,72,-99.99,,,-99.99,,2013-02-15 05:42:00,
2013-02-15 00:52:00,28.0,21.0,29.89,SSE,165,0.0,-999.0,74,-99.99,,,-99.99,,2013-02-15 05:52:00,
2013-02-15 01:02:00,28.0,21.0,29.88,SSE,161,0.0,-999.0,75,-99.99,,,-99.99,,2013-02-15 06:02:00,
2013-02-15 01:11:00,27.0,20.0,29.88,SSE,161,0.0,-999.0,76,-99.99,,,-99.99,,2013-02-15 06:11:00,
2013-02-15 01:22:00,27.0,20.0,29.88,SSE,161,0.0,-999.0,76,-99.99,,,-99.99,,2013-02-15 06:22:00,
2013-02-15 01:32:00,27.0,20.0,29.88,SSE,164,0.0,-999.0,76,-99.99,,,-99.99,,2013-02-15 06:32:00,
2013-02-15 01:42:00,27.0,20.0,29.88,SSE,164,0.0,-999.0,76,-99.99,,,-99.99,,2013-02-15 06:42:00,
2013-02-15 01:52:00,27.0,20.0,29.88,SE,140,0.0,-999.0,76,-99.99,,,-99.99,,2013-02-15 06:52:00,
2013-02-15 02:01:00,27.0,20.0,29.88,SE,140,0.0,-999.0,76,-99.99,,,-99.99,,2013-02-15 07:01:00,
2013-02-15 02:11:00,27.0,20.0,29.88,SE,140,0.0,-999.0,76,-99.99,,,-99.99,,2013-02-15 07:11:00,
2013-02-15 02:21:00,27.0,21.0,29.88,SSE,168,0.0,-999.0,77,-99.99,,,-99.99,,2013-02-15 07:21:00,
2013-02-15 02:32:00,26.0,20.0,29.88,SSE,168,0.0,-999.0,78,-99.99,,,-99.99,,2013-02-15 07:32:00,
2013-02-15 02:42:00,26.0,20.0,29.88,SSE,168,0.0,-999.0,78,-99.99,,,-99.99,,2013-02-15 07:42:00,
2013-02-15 02:52:00,26.0,20.0,29.88,SSE,168,0.0,-999.0,78,-99.99,,,-99.99,,2013-02-15 07:52:00,
2013-02-15 03:01:00,26.0,21.0,29.88,SE,128,1.0,-999.0,81,-99.99,,,-99.99,,2013-02-15 08:01:00,
2013-02-15 03:11:00,26.0,21.0,29.88,SE,128,1.0,-999.0,81,-99.99,,,-99.99,,2013-02-15 08:11:00,
2013-02-15 03:21:00,26.0,21.0,29.88,SSE,147,0.0,-999.0,82,-99.99,,,-99.99,,2013-02-15 08:21:00,
2013-02-15 03:32:00,26.0,21.0,29.88,SSE,147,0.0,-999.0,82,-99.99,,,-99.99,,2013-02-15 08:32:00,
2013-02-15 03:42:00,26.0,21.0,29.88,SSE,147,0.0,-999.0,82,-99.99,,,-99.99,,2013-02-15 08:42:00,
2013-02-15 03:53:00,26.0,22.0,29.87,ESE,121,0.0,-999.0,85,-99.99,,,-99.99,,2013-02-15 08:53:00,
2013-02-15 04:02:00,27.0,23.0,29.86,SSE,148,0.0,-999.0,85,-99.99,,,-99.99,,2013-02-15 09:02:00,
2013-02-15 04:12:00,27.0,23.0,29.86,SSE,148,0.0,-999.0,85,-99.99,,,-99.99,,2013-02-15 09:12:00,
2013-02-15 04:21:00,27.0,23.0,29.86,SE,144,1.0,-999.0,85,-99.99,,,-99.99,,2013-02-15 09:21:00,
2013-02-15 04:32:00,27.0,23.0,29.87,SE,127,0.0,-999.0,86,-99.99,,,-99.99,,2013-02-15 09:32:00,
2013-02-15 04:42:00,27.0,23.0,29.87,SE,127,0.0,-999.0,86,-99.99,,,-99.99,,2013-02-15 09:42:00,
2013-02-15 04:52:00,27.0,23.0,29.87,SE,134,0.0,-999.0,85,-99.99,,,-99.99,,2013-02-15 09:52:00,
2013-02-15 05:01:00,27.0,23.0,29.86,ESE,116,0.0,-999.0,86,-99.99,,,-99.99,,2013-02-15 10:01:00,
2013-02-15 05:11:00,27.0,23.0,29.86,ESE,116,0.0,-999.0,86,-99.99,,,-99.99,,2013-02-15 10:11:00,
2013-02-15 05:21:00,26.0,22.0,29.85,ESE,116,0.0,-999.0,85,-99.99,,,-99.99,,2013-02-15 10:21:00,
2013-02-15 05:32:00,25.0,21.0,29.83,East,82,0.0,-999.0,86,-99.99,,,-99.99,,2013-02-15 10:32:00,
2013-02-15 05:42:00,25.0,21.0,29.83,East,82,0.0,-999.0,86,-99.99,,,-99.99,,2013-02-15 10:42:00,
2013-02-15 05:52:00,25.0,22.0,29.83,East,82,0.0,-999.0,88,-99.99,,,-99.99,,2013-02-15 10:52:00,
2013-02-15 06:01:00,25.0,22.0,29.84,East,82,0.0,-999.0,88,-99.99,,,-99.99,,2013-02-15 11:01:00,
2013-02-15 06:11:00,25.0,22.0,29.84,East,82,0.0,-999.0,88,-99.99,,,-99.99,,2013-02-15 11:11:00,
2013-02-15 06:23:00,25.0,22.0,29.85,East,82,0.0,-999.0,89,-99.99,,,-99.99,,2013-02-15 11:23:00,
2013-02-15 06:32:00,25.0,22.0,29.85,East,82,0.0,-999.0,90,-99.99,,,-99.99,,2013-02-15 11:32:00,
2013-02-15 06:42:00,25.0,22.0,29.85,East,82,0.0,-999.0,90,-99.99,,,-99.99,,2013-02-15 11:42:00,
2013-02-15 06:52:00,24.0,22.0,29.85,SSE,157,0.0,-999.0,91,-99.99,,,-99.99,,2013-02-15 11:52:00,
2013-02-15 07:02:00,24.0,22.0,29.85,SE,138,0.0,-999.0,91,-99.99,,,-99.99,,2013-02-15 12:02:00,
2013-02-15 07:11:00,24.0,22.0,29.85,SE,138,0.0,-999.0,91,-99.99,,,-99.99,,2013-02-15 12:11:00,
2013-02-15 07:21:00,24.0,22.0,29.85,SE,138,0.0,-999.0,92,-99.99,,,-99.99,,2013-02-15 12:21:00,
2013-02-15 07:32:00,24.0,22.0,29.85,ESE,116,0.0,-999.0,93,-99.99,,,-99.99,,2013-02-15 12:32:00,
2013-02-15 07:42:00,24.0,22.0,29.85,ESE,116,0.0,-999.0,93,-99.99,,,-99.99,,2013-02-15 12:42:00,
2013-02-15 07:52:00,24.0,22.0,29.85,ESE,116,0.0,-999.0,93,-99.99,,,-99.99,,2013-02-15 12:52:00,
2013-02-15 08:02:00,25.0,24.0,29.85,SE,126,0.0,-999.0,94,-99.99,,,-99.99,,2013-02-15 13:02:00,
2013-02-15 08:11:00,25.0,24.0,29.85,SE,126,0.0,-999.0,94,-99.99,,,-99.99,,2013-02-15 13:11:00,
2013-02-15 08:22:00,26.0,25.0,29.86,South,171,0.0,-999.0,94,-99.99,,,-99.99,,2013-02-15 13:22:00,
2013-02-15 08:32:00,27.0,26.0,29.86,SSE,165,0.0,-999.0,94,-99.99,,,-99.99,,2013-02-15 13:32:00,
2013-02-15 08:42:00,27.0,26.0,29.86,SSE,165,0.0,-999.0,94,-99.99,,,-99.99,,2013-02-15 13:42:00,
2013-02-15 08:52:00,29.0,27.0,29.87,SSW,195,2.0,-999.0,93,-99.99,,,-99.99,,2013-02-15 13:52:00,
2013-02-15 09:01:00,30.0,28.0,29.87,SSE,161,2.0,-999.0,91,-99.99,,,-99.99,,2013-02-15 14:01:00,
2013-02-15 09:12:00,30.0,28.0,29.87,SSE,161,2.0,-999.0,91,-99.99,,,-99.99,,2013-02-15 14:12:00,
2013-02-15 09:21:00,30.0,27.0,29.87,SW,217,3.0,-999.0,90,-99.99,,,-99.99,,2013-02-15 14:21:00,
2013-02-15 09:32:00,31.0,28.0,29.87,South,186,2.0,-999.0,89,-99.99,,,-99.99,,2013-02-15 14:32:00,
2013-02-15 09:42:00,31.0,28.0,29.87,South,186,2.0,-999.0,89,-99.99,,,-99.99,,2013-02-15 14:42:00,
2013-02-15 09:52:00,32.0,29.0,29.87,SSE,165,2.0,-999.0,88,-99.99,,,-99.99,,2013-02-15 14:52:00,
2013-02-15 10:02:00,33.0,29.0,29.87,South,182,3.0,-999.0,84,-99.99,,,-99.99,,2013-02-15 15:02:00,
2013-02-15 10:11:00,33.0,29.0,29.87,South,182,3.0,-999.0,84,-99.99,,,-99.99,,2013-02-15 15:11:00,
2013-02-15 10:21:00,33.0,29.0,29.87,South,182,3.0,-999.0,84,-99.99,,,-99.99,,2013-02-15 15:21:00,
2013-02-15 10:32:00,37.0,30.0,29.89,SE,126,2.0,-999.0,75,-99.99,,,-99.99,,2013-02-15 15:32:00,
2013-02-15 10:42:00,38.0,29.0,29.89,SE,138,1.0,-999.0,71,-99.99,,,-99.99,,2013-02-15 15:42:00,
2013-02-15 10:52:00,38.0,29.0,29.89,SE,138,1.0,-999.0,71,-99.99,,,-99.99,,2013-02-15 15:52:00,
2013-02-15 11:02:00,39.0,30.0,29.89,South,186,2.0,-999.0,69,-99.99,,,-99.99,,2013-02-15 16:02:00,
2013-02-15 11:11:00,39.0,30.0,29.89,South,186,2.0,-999.0,69,-99.99,,,-99.99,,2013-02-15 16:11:00,
2013-02-15 11:22:00,39.0,29.0,29.88,South,179,3.0,-999.0,67,-99.99,,,-99.99,,2013-02-15 16:22:00,
2013-02-15 11:32:00,39.0,29.0,29.88,South,179,3.0,-999.0,67,-99.99,,,-99.99,,2013-02-15 16:32:00,
2013-02-15 11:42:00,39.0,29.0,29.88,South,179,3.0,-999.0,67,-99.99,,,-99.99,,2013-02-15 16:42:00,
2013-02-15 11:52:00,42.0,30.0,29.86,South,182,2.0,-999.0,61,-99.99,,,-99.99,,2013-02-15 16:52:00,
2013-02-15 12:01:00,44.0,30.0,29.86,SSE,160,2.0,-999.0,57,-99.99,,,-99.99,,2013-02-15 17:01:00,
2013-02-15 12:11:00,45.0,30.0,29.85,South,184,1.0,-999.0,56,-99.99,,,-99.99,,2013-02-15 17:11:00,
2013-02-15 12:21:00,45.0,30.0,29.85,South,184,1.0,-999.0,56,-99.99,,,-99.99,,2013-02-15 17:21:00,
2013-02-15 12:32:00,45.0,30.0,29.85,South,184,1.0,-999.0,56,-99.99,,,-99.99,,2013-02-15 17:32:00,
2013-02-15 12:42:00,45.0,30.0,29.85,South,184,1.0,-999.0,56,-99.99,,,-99.99,,2013-02-15 17:42:00,
2013-02-15 12:52:00,45.0,29.0,29.85,South,178,2.0,-999.0,54,-99.99,,,-99.99,,2013-02-15 17:52:00,
2013-02-15 13:01:00,45.0,30.0,29.84,South,181,1.0,-999.0,55,-99.99,,,-99.99,,2013-02-15 18:01:00,
2013-02-15 13:12:00,45.0,30.0,29.84,South,181,1.0,-999.0,55,-99.99,,,-99.99,,2013-02-15 18:12:00,
2013-02-15 13:21:00,46.0,30.0,29.84,SSW,208,1.0,-999.0,53,-99.99,,,-99.99,,2013-02-15 18:21:00,
2013-02-15 13:32:00,46.0,30.0,29.84,SSW,208,1.0,-999.0,53,-99.99,,,-99.99,,2013-02-15 18:32:00,
2013-02-15 13:42:00,46.0,30.0,29.84,SSW,208,1.0,-999.0,53,-99.99,,,-99.99,,2013-02-15 18:42:00,
2013-02-15 13:53:00,46.0,30.0,29.84,SSW,208,1.0,-999.0,53,-99.99,,,-99.99,,2013-02-15 18:53:00,
2013-02-15 14:01:00,46.0,30.0,29.84,SSW,208,1.0,-999.0,53,-99.99,,,-99.99,,2013-02-15 19:01:00,
2013-02-15 14:22:00,48.0,30.0,29.83,SW,229,0.0,-999.0,49,-99.99,,,-99.99,,2013-02-15 19:22:00,
2013-02-15 14:32:00,48.0,30.0,29.83,SW,229,0.0,-999.0,49,-99.99,,,-99.99,,2013-02-15 19:32:00,
2013-02-15 14:42:00,48.0,30.0,29.83,SW,229,0.0,-999.0,49,-99.99,,,-99.99,,2013-02-15 19:42:00,
2013-02-15 14:52:00,48.0,27.0,29.83,West,277,2.0,-999.0,43,-99.99,,,-99.99,,2013-02-15 19:52:00,
2013-02-15 15:01:00,48.0,27.0,29.83,SW,236,2.0,-999.0,44,-99.99,,,-99.99,,2013-02-15 20:01:00,
2013-02-15 15:11:00,48.0,27.0,29.83,SW,236,2.0,-999.0,44,-99.99,,,-99.99,,2013-02-15 20:11:00,
2013-02-15 15:21:00,48.0,27.0,29.83,West,280,2.0,-999.0,44,-99.99,,,-99.99,,2013-02-15 20:21:00,
2013-02-15 15:32:00,47.0,26.0,29.83,WSW,250,1.0,-999.0,44,-99.99,,,-99.99,,2013-02-15 20:32:00,
2013-02-15 15:42:00,47.0,26.0,29.83,WSW,250,1.0,-999.0,44,-99.99,,,-99.99,,2013-02-15 20:42:00,
2013-02-15 15:52:00,47.0,26.0,29.83,NW,305,1.0,-999.0,44,-99.99,,,-99.99,,2013-02-15 20:52:00,
2013-02-15 16:02:00,47.0,26.0,29.83,WSW,250,3.0,-999.0,43,-99.99,,,-99.99,,2013-02-15 21:02:00,
2013-02-15 16:11:00,47.0,26.0,29.83,WSW,250,3.0,-999.0,43,-99.99,,,-99.99,,2013-02-15 21:11:00,
2013-02-15 16:22:00,46.0,26.0,29.84,SW,220,1.0,-999.0,45,-99.99,,,-99.99,,2013-02-15 21:22:00,
2013-02-15 16:32:00,46.0,26.0,29.84,SW,220,1.0,-999.0,45,-99.99,,,-99.99,,2013-02-15 21:32:00,
2013-02-15 16:42:00,46.0,26.0,29.84,SW,220,1.0,-999.0,45,-99.99,,,-99.99,,2013-02-15 21:42:00,
2013-02-15 16:52:00,46.0,26.0,29.84,SW,220,1.0,-999.0,45,-99.99,,,-99.99,,2013-02-15 21:52:00,
2013-02-15 17:02:00,44.0,27.0,29.85,WNW,302,2.0,-999.0,51,-99.99,,,-99.99,,2013-02-15 22:02:00,
2013-02-15 17:11:00,44.0,27.0,29.85,WNW,302,2.0,-999.0,51,-99.99,,,-99.99,,2013-02-15 22:11:00,
2013-02-15 17:22:00,43.0,28.0,29.85,WNW,292,1.0,-999.0,54,-99.99,,,-99.99,,2013-02-15 22:22:00,
2013-02-15 17:32:00,42.0,27.0,29.87,WNW,298,2.0,-999.0,56,-99.99,,,-99.99,,2013-02-15 22:32:00,
2013-02-15 17:42:00,42.0,27.0,29.87,WNW,298,2.0,-999.0,56,-99.99,,,-99.99,,2013-02-15 22:42:00,
2013-02-15 17:52:00,41.0,27.0,29.88,NW,326,3.0,-999.0,58,-99.99,,,-99.99,,2013-02-15 22:52:00,
2013-02-15 18:02:00,40.0,27.0,29.88,North,350,2.0,-999.0,59,-99.99,,,-99.99,,2013-02-15 23:02:00,
2013-02-15 18:11:00,40.0,27.0,29.88,North,350,2.0,-999.0,59,-99.99,,,-99.99,,2013-02-15 23:11:00,
2013-02-15 18:21:00,40.0,27.0,29.88,North,350,2.0,-999.0,59,-99.99,,,-99.99,,2013-02-15 23:21:00,
2013-02-15 18:32:00,39.0,26.0,29.86,North,354,2.0,-999.0,59,-99.99,,,-99.99,,2013-02-15 23:32:00,
2013-02-15 18:42:00,39.0,26.0,29.86,North,354,2.0,-999.0,59,-99.99,,,-99.99,,2013-02-15 23:42:00,
2013-02-15 18:52:00,39.0,26.0,29.86,NW,316,0.0,-999.0,60,-99.99,,,-99.99,,2013-02-15 23:52:00,
2013-02-15 19:02:00,38.0,25.0,29.86,NNW,342,0.0,-999.0,60,-99.99,,,-99.99,,2013-02-16 00:02:00,
2013-02-15 19:11:00,38.0,25.0,29.86,NNW,342,0.0,-999.0,60,-99.99,,,-99.99,,2013-02-16 00:11:00,
2013-02-15 19:22:00,38.0,25.0,29.86,North,360,1.0,-999.0,59,-99.99,,,-99.99,,2013-02-16 00:22:00,
2013-02-15 19:32:00,38.0,25.0,29.86,North,360,1.0,-999.0,59,-99.99,,,-99.99,,2013-02-16 00:32:00,
2013-02-15 19:42:00,38.0,25.0,29.86,North,360,1.0,-999.0,59,-99.99,,,-99.99,,2013-02-16 00:42:00,
2013-02-15 19:52:00,38.0,25.0,29.86,North,360,1.0,-999.0,59,-99.99,,,-99.99,,2013-02-16 00:52:00,
2013-02-15 20:02:00,38.0,25.0,29.86,North,360,1.0,-999.0,59,-99.99,,,-99.99,,2013-02-16 01:02:00,
2013-02-15 20:52:00,37.0,25.0,29.88,NW,306,0.0,-999.0,62,-99.99,,,-99.99,,2013-02-16 01:52:00,
2013-02-15 21:01:00,36.0,24.0,29.88,NNW,340,0.0,-999.0,61,-99.99,,,-99.99,,2013-02-16 02:01:00,
2013-02-15 21:11:00,36.0,24.0,29.88,NNW,340,0.0,-999.0,61,-99.99,,,-99.99,,2013-02-16 02:11:00,
2013-02-15 21:21:00,36.0,24.0,29.88,NNW,343,0.0,-999.0,61,-99.99,,,-99.99,,2013-02-16 02:21:00,
2013-02-15 21:32:00,36.0,24.0,29.88,NNW,343,0.0,-999.0,61,-99.99,,,-99.99,,2013-02-16 02:32:00,
2013-02-15 21:42:00,36.0,24.0,29.88,NNW,343,0.0,-999.0,61,-99.99,,,-99.99,,2013-02-16 02:42:00,
2013-02-15 21:52:00,35.0,23.0,29.88,NNW,343,0.0,-999.0,60,-99.99,,,-99.99,,2013-02-16 02:52:00,
2013-02-15 22:02:00,35.0,23.0,29.88,NNW,343,0.0,-999.0,60,-99.99,,,-99.99,,2013-02-16 03:02:00,
2013-02-15 22:11:00,35.0,23.0,29.88,NNW,343,0.0,-999.0,60,-99.99,,,-99.99,,2013-02-16 03:11:00,
2013-02-15 22:21:00,35.0,23.0,29.88,NNW,343,0.0,-999.0,60,-99.99,,,-99.99,,2013-02-16 03:21:00,
2013-02-15 22:32:00,35.0,23.0,29.87,NNW,335,0.0,-999.0,60,-99.99,,,-99.99,,2013-02-16 03:32:00,
2013-02-15 22:42:00,35.0,23.0,29.87,NNW,335,0.0,-999.0,60,-99.99,,,-99.99,,2013-02-16 03:42:00,
2013-02-15 22:52:00,35.0,24.0,29.88,NNW,336,0.0,-999.0,64,-99.99,,,-99.99,,2013-02-16 03:52:00,
2013-02-15 23:01:00,34.0,22.0,29.88,NNW,336,0.0,-999.0,61,-99.99,,,-99.99,,2013-02-16 04:01:00,
2013-02-15 23:11:00,34.0,22.0,29.88,NNW,336,0.0,-999.0,62,-99.99,,,-99.99,,2013-02-16 04:11:00,
2013-02-15 23:21:00,34.0,22.0,29.88,NNW,336,0.0,-999.0,62,-99.99,,,-99.99,,2013-02-16 04:21:00,
2013-02-15 23:32:00,35.0,23.0,29.87,NNW,335,0.0,-999.0,62,-99.99,,,-99.99,,2013-02-16 04:32:00,
2013-02-15 23:42:00,35.0,23.0,29.87,NNW,335,0.0,-999.0,62,-99.99,,,-99.99,,2013-02-16 04:42:00,
2013-02-15 23:52:00,35.0,23.0,29.87,NNW,335,0.0,-999.0,62,-99.99,,,-99.99,,2013-02-16 04:52:00,